This is the latest recevied weather packets stored in our database for station/object N5JXS. If no packets are shown the sender has not sent any weather packets the latest 10 day(s).
| Time | Temp. | Humidity | Pressure | Rain* | Wind** | Luminosity | Snow |
|---|---|---|---|---|---|---|---|
| 1788098975 | 16.67° C | 64% | 1026.3 hPa | 0 mm | - | 39 W/m² | - |
| 1788098670 | 16.11° C | 64% | 1026.3 hPa | 0 mm | - | 42 W/m² | - |
| 1788098369 | 16.11° C | 66% | 1026.3 hPa | 0 mm | - | 49 W/m² | - |
| 1788098065 | 15.56° C | 65% | 1026.5 hPa | 0 mm | - | 56 W/m² | - |
| 1788097760 | 15.56° C | 66% | 1026.1 hPa | 0 mm | - | 55 W/m² | - |
| 1788097456 | 15.56° C | 66% | 1026.1 hPa | 0 mm | - | 36 W/m² | - |
| 1788097151 | 15.56° C | 66% | 1026.1 hPa | 0 mm | - | 27 W/m² | - |
| 1788096847 | 15.56° C | 66% | 1026.1 hPa | 0 mm | - | 24 W/m² | - |
| 1788096541 | 15.56° C | 66% | 1026.3 hPa | 0 mm | - | 23 W/m² | - |
| 1788096238 | 15.56° C | 66% | 1026.1 hPa | 0 mm | - | 20 W/m² | - |
| 1788095937 | 15.56° C | 66% | 1026.2 hPa | 0 mm | - | 16 W/m² | - |
| 1788095636 | 15.56° C | 64% | 1026.1 hPa | 0 mm | - | 15 W/m² | - |
| 1788095347 | 15° C | 65% | 1026 hPa | 0 mm | - | 15 W/m² | - |
| 1788095027 | 15° C | 66% | 1026 hPa | 0 mm | - | 12 W/m² | - |
| 1788094726 | 15° C | 67% | 1025.8 hPa | 0 mm | - | 8 W/m² | - |
| 1788094422 | 15° C | 66% | 1026.1 hPa | 0 mm | - | 6 W/m² | - |
| 1788094119 | 15° C | 66% | 1025.8 hPa | 0 mm | - | 3 W/m² | - |
| 1788093814 | 15° C | 65% | 1026 hPa | 0 mm | - | 2 W/m² | - |
| 1788093511 | 15° C | 66% | 1025.7 hPa | 0 mm | - | 1 W/m² | - |
| 1788093207 | 15° C | 66% | 1025.6 hPa | 0 mm | - | 0 W/m² | - |
| 1788092904 | 15° C | 65% | 1025.3 hPa | 0 mm | - | 0 W/m² | - |
| 1788092599 | 15° C | 66% | 1025.5 hPa | 0 mm | - | 0 W/m² | - |
| 1788092295 | 15° C | 66% | 1025.1 hPa | 0 mm | - | 0 W/m² | - |
| 1788091994 | 15° C | 67% | 1025.2 hPa | 0 mm | - | 0 W/m² | - |
| 1788091689 | 14.44° C | 67% | 1025.2 hPa | 0 mm | - | 0 W/m² | - |
* Rain latest hour (hover to see other rain measurements)
** Current wind speed in m/s (hover to see current wind gust speed)